Theta_e
321 331 337 338 341 335 336 335 331 330 328 325 323 323 323 321 321 321 326 328 329 328 330 333 328 328 329 329 329 324 324 330 332 330 329 328 327 324 325 327 329 331 332 333 334 333 333 336 336
334 337 336 338 339 338 335 331 331 329 326 323 322 321 321 321 321 322 324 327 328 327 330 329 331 330 329 327 325 323 327 329 333 332 331 330 328 327 326 327 328 330 331 332 333 333 333 336 336
333 333 339 338 336 336 334 331 329 326 324 324 323 322 322 323 323 323 324 326 326 326 325 326 322 323 323 325 328 326 327 328 331 333 332 331 330 329 328 328 329 329 330 332 332 334 333 333 336
333 335 335 337 336 333 330 329 328 326 323 323 323 322 323 323 324 324 324 324 323 322 322 324 321 322 328 329 329 330 328 328 330 331 331 330 331 330 329 328 328 328 329 331 332 332 333 333 336
333 334 336 336 334 332 330 329 326 326 325 324 321 323 324 324 323 323 322 321 321 321 322 323 325 320 325 325 333 332 330 331 330 331 330 329 329 329 329 329 328 327 328 328 330 332 332 333 333
334 333 335 334 334 332 331 328 325 325 325 322 321 322 324 324 323 322 322 323 323 322 326 326 325 320 320 323 330 331 330 330 329 328 328 328 328 328 329 329 328 328 327 327 327 330 332 331 332
333 333 334 333 333 332 329 325 324 324 324 323 322 322 324 324 322 322 321 320 321 321 320 321 322 323 320 320 324 326 324 321 322 324 326 327 327 328 328 328 328 328 327 328 327 327 332 329 330
332 332 332 333 333 332 329 325 323 323 323 321 322 322 323 325 321 320 319 319 319 319 319 320 320 319 322 323 323 319 319 320 322 324 325 326 327 325 327 328 326 327 328 327 327 326 330 331 329
330 330 330 331 331 331 330 327 324 322 322 322 322 323 322 321 319 319 320 320 320 319 319 320 320 322 324 323 323 323 324 323 323 323 323 323 324 325 327 327 327 327 326 327 327 327 331 332 329
329 328 328 329 330 331 330 328 327 323 323 322 322 321 319 319 319 321 321 321 320 320 319 318 323 323 323 323 324 325 325 323 322 322 322 323 324 325 324 325 325 325 326 327 327 328 331 331 331
327 327 326 327 329 328 328 327 325 324 324 324 323 323 321 320 320 321 320 320 320 321 318 318 323 324 324 324 325 324 325 324 323 323 324 323 323 324 324 323 323 324 325 326 326 324 327 330 331
327 325 326 327 328 326 326 326 324 323 324 323 323 323 323 322 323 321 321 320 321 319 319 323 324 325 325 325 325 325 325 324 324 324 323 324 324 324 324 324 322 324 325 326 327 325 329 331 332
326 325 326 327 326 324 324 324 323 323 323 322 322 322 323 323 322 321 321 321 321 319 325 326 325 326 326 326 325 326 326 325 324 324 323 324 324 325 323 323 323 324 325 326 328 327 329 331 332
326 326 326 326 324 323 323 324 321 324 323 323 322 323 323 322 322 321 322 322 322 320 327 325 326 328 327 327 327 327 327 326 324 323 323 325 325 324 324 322 323 324 325 326 327 327 328 331 331
327 326 326 325 323 323 322 324 323 324 323 323 323 323 322 323 321 321 322 323 321 322 326 325 326 327 328 328 328 327 327 327 326 325 325 325 325 325 325 324 322 323 325 326 327 328 330 330 330
325 325 327 327 323 322 322 325 324 324 323 324 324 323 322 322 321 321 322 323 321 325 325 325 326 327 328 328 328 328 328 328 327 326 326 326 326 326 326 326 326 326 327 327 327 328 328 329 330
327 327 327 328 325 324 323 326 325 324 323 324 324 324 323 323 322 321 323 323 320 323 324 324 326 327 327 327 327 328 328 328 328 326 325 326 327 327 327 327 327 327 327 328 328 327 327 329 330
328 327 326 328 326 324 325 326 324 324 324 325 325 325 323 323 323 322 324 322 321 323 325 324 326 327 327 328 328 327 328 329 327 324 319 324 326 327 328 328 327 327 326 327 328 329 328 328 330
326 326 327 327 326 325 327 327 325 324 324 325 325 326 325 324 323 323 324 322 321 323 325 326 325 326 324 327 329 328 329 328 328 323 323 323 325 327 328 328 327 326 327 327 328 329 329 330 331
326 328 328 327 326 326 326 325 325 325 324 325 326 327 325 325 324 324 324 323 321 321 323 326 325 324 323 327 329 329 329 327 325 324 325 324 323 327 328 328 327 327 326 328 328 329 330 331 332
327 328 328 328 327 325 325 325 325 325 324 325 325 326 326 326 325 325 325 323 321 321 323 324 325 324 325 329 328 330 331 328 329 326 327 325 325 326 327 327 327 327 326 328 329 330 331 332 333
327 326 326 326 326 326 326 328 325 325 324 325 327 326 326 325 325 326 325 323 321 322 323 324 325 325 326 328 327 329 330 329 329 330 328 327 326 324 327 328 328 328 327 330 330 331 331 331 333
325 325 326 326 326 326 326 327 325 324 324 323 323 327 327 325 325 326 326 323 320 322 322 325 327 325 329 328 327 326 329 331 330 330 330 329 329 328 328 328 329 329 330 331 331 332 331 332 331
324 325 325 325 325 328 325 325 323 322 323 323 324 328 328 325 324 325 324 322 320 322 322 324 327 324 327 328 328 327 326 328 329 330 329 328 329 330 329 327 327 330 331 331 330 331 332 333 333
325 326 328 329 328 327 325 323 323 323 323 324 325 326 328 325 324 325 325 323 321 322 322 324 325 324 323 326 327 326 327 328 330 329 328 329 327 329 328 327 329 329 331 331 331 331 333 333 330
325 327 327 328 329 327 325 324 323 323 325 328 329 330 328 325 325 325 325 323 321 321 323 324 324 323 322 324 325 325 326 325 327 331 327 324 328 326 327 327 329 330 330 331 332 332 332 330 330
325 326 325 327 326 327 325 325 325 324 326 329 330 330 328 326 325 325 325 323 320 321 324 325 325 322 322 322 324 324 324 325 327 332 331 330 328 328 329 329 327 330 331 329 332 332 332 331 328
325 325 326 326 329 329 325 325 324 324 328 334 332 330 328 326 325 325 326 323 320 321 323 326 326 322 323 321 322 322 323 324 327 329 328 329 328 327 326 328 330 330 331 332 332 331 332 331 330
324 326 326 326 326 328 329 326 326 325 331 334 334 331 328 327 325 326 326 323 320 321 323 325 327 324 320 321 322 323 322 323 325 325 326 327 325 326 327 327 327 328 329 329 333 332 330 330 328
325 324 327 327 328 326 326 326 326 327 332 334 335 331 328 327 326 326 326 322 320 322 322 324 326 323 318 319 321 322 321 323 323 325 326 327 329 328 327 327 328 328 327 327 331 332 332 332 331
Wind_Speed
14 13 8 7 7 6 8 2 5 6 4 3 4 3 5 6 5 6 3 6 5 3 9 9 14 16 16 16 15 16 18 17 15 15 14 13 14 16 16 15 14 13 11 11 10 9 10 8 9
13 10 6 4 7 8 3 3 6 7 3 4 4 4 5 4 1 1 4 7 5 3 5 8 13 17 18 19 18 19 19 18 18 17 16 16 16 17 18 17 15 14 13 12 12 11 11 10 9
11 8 8 5 6 9 5 4 5 3 6 6 3 4 1 1 3 1 3 6 6 5 6 8 14 18 17 16 19 18 19 19 19 19 20 21 20 19 19 19 16 14 13 12 13 12 12 12 10
8 7 5 9 8 1 7 9 7 6 5 7 6 5 3 2 5 4 4 6 6 7 8 10 16 17 18 17 19 20 20 20 19 21 24 24 24 23 21 20 18 15 13 11 12 13 14 14 11
9 6 10 8 8 5 7 9 9 9 7 4 5 4 2 4 4 6 4 4 7 8 9 10 13 14 15 15 17 18 19 19 20 22 24 25 27 25 23 22 20 17 14 12 13 12 13 15 13
8 4 9 11 3 4 7 6 7 8 7 4 5 5 3 4 8 5 4 3 4 5 5 6 9 10 13 15 16 18 19 20 20 21 21 22 23 24 24 23 22 19 17 15 14 13 14 13 14
12 8 14 12 11 9 4 5 8 7 8 7 1 6 2 8 7 7 5 4 3 2 3 6 8 11 13 15 17 18 19 21 22 23 19 19 20 19 22 22 23 19 18 15 14 16 13 13 13
8 8 16 13 12 10 3 3 5 8 8 6 5 5 5 8 10 8 6 5 4 3 6 8 11 12 11 11 13 18 21 22 20 17 16 16 18 18 19 20 21 19 18 14 14 15 14 12 14
6 11 12 12 13 12 4 11 4 3 8 7 8 7 2 8 11 10 8 6 4 6 8 10 11 10 10 12 13 17 14 16 15 13 12 13 13 13 12 16 19 18 17 15 13 14 14 13 14
11 12 15 9 11 14 16 9 13 7 8 10 9 5 6 11 12 11 9 7 5 7 9 10 8 10 10 11 12 13 13 11 12 10 10 11 12 12 12 13 12 18 17 17 13 13 13 14 16
13 15 14 14 14 16 18 13 10 11 12 10 9 11 12 12 12 11 7 4 5 6 8 9 8 8 9 11 13 12 11 11 10 9 9 8 9 12 12 13 15 18 17 16 14 13 14 15 16
14 16 16 15 12 12 9 7 9 12 12 4 5 4 13 14 12 11 7 4 4 7 8 8 8 8 9 10 11 11 11 10 10 8 7 7 7 8 8 11 15 18 19 18 13 13 13 16 18
14 17 14 13 12 9 4 9 8 10 7 6 6 10 14 12 11 8 5 2 3 7 8 8 8 8 8 10 9 10 9 9 8 8 7 7 7 7 7 9 12 17 17 16 14 13 13 16 17
12 11 13 11 11 6 8 4 4 8 2 9 10 12 12 12 11 9 6 3 3 5 6 7 7 7 8 8 9 10 8 8 7 7 7 8 7 7 5 5 9 14 16 17 13 13 15 16 16
11 14 13 13 10 6 6 9 10 9 4 9 12 11 12 11 12 10 6 4 3 3 4 7 6 6 7 8 8 8 8 7 8 7 7 9 8 7 4 6 8 11 11 12 12 13 14 16 15
14 15 15 13 9 6 7 10 10 6 9 13 13 13 12 13 13 10 7 5 2 2 4 6 7 8 9 10 10 9 8 7 8 9 9 9 10 10 6 8 11 10 11 13 15 17 18 18 17
15 15 19 10 11 6 11 13 8 7 9 13 12 14 13 13 13 12 10 7 3 1 3 6 7 8 9 9 9 9 8 7 5 4 8 8 10 10 10 8 10 12 12 13 14 16 17 17 17
16 13 12 13 10 10 12 14 14 14 13 12 13 14 15 14 14 14 12 8 4 1 2 5 6 7 10 9 7 8 6 5 5 4 7 7 7 8 10 9 10 12 12 13 14 14 16 18 17
13 12 14 11 6 10 15 15 15 15 17 13 14 14 16 15 13 15 13 9 5 2 2 5 5 7 9 10 12 11 11 8 4 4 7 10 9 7 9 9 10 11 12 13 14 14 14 12 14
15 17 17 11 10 9 16 17 18 17 17 13 13 14 16 15 15 15 14 10 6 2 2 4 4 6 8 9 9 9 8 6 4 8 9 6 3 5 8 11 13 13 12 11 13 14 13 13 16
19 17 14 12 12 12 16 18 13 8 10 10 11 12 15 17 17 16 16 12 8 5 3 1 3 5 6 7 9 9 2 4 4 7 11 12 3 4 7 11 14 14 13 14 15 15 14 17 14
20 15 15 14 13 12 4 15 14 11 12 12 12 12 14 16 17 16 16 14 10 7 5 1 2 5 5 8 9 10 7 6 4 4 5 9 8 6 7 11 14 14 13 13 16 15 15 19 18
16 13 12 14 12 12 16 8 10 6 10 9 8 12 13 16 18 18 16 16 12 9 7 2 1 4 5 8 10 10 10 9 4 2 5 9 10 10 7 9 12 12 13 15 17 17 17 20 19
14 8 9 8 11 12 15 10 10 3 4 6 6 2 10 15 18 17 18 16 13 11 8 4 2 4 4 6 9 10 10 10 9 2 3 6 9 11 9 10 10 11 12 16 19 18 21 22 19
16 13 9 10 9 11 2 6 11 10 8 9 9 4 9 15 18 18 17 16 15 13 10 6 3 4 4 5 7 8 10 9 7 7 3 5 12 13 12 11 11 11 12 17 20 20 21 22 22
19 17 11 10 11 11 6 6 4 2 5 6 4 4 10 17 18 18 17 17 16 14 12 7 4 5 4 6 6 7 10 10 11 9 10 13 11 10 12 13 14 14 13 17 20 19 19 23 18
14 15 16 15 14 8 12 6 11 6 7 4 3 6 12 17 18 18 18 17 16 15 13 10 6 5 5 5 5 6 9 9 7 10 11 10 9 8 7 10 16 14 16 17 18 20 18 20 26
21 15 10 10 13 13 9 7 6 3 5 4 7 9 13 17 18 17 15 17 16 15 13 11 8 6 7 5 5 7 7 9 8 8 9 9 5 9 11 10 8 9 14 16 19 18 17 18 20
12 16 13 13 13 12 9 5 5 2 3 2 8 11 15 17 18 18 15 19 18 17 14 11 10 7 8 6 6 6 7 8 9 9 10 10 8 9 12 12 11 9 9 11 14 17 18 17 19
22 22 21 11 15 10 10 9 4 4 1 1 9 13 17 18 17 17 17 20 20 18 15 12 11 9 9 8 7 7 7 8 9 10 11 12 13 13 13 17 11 8 7 5 6 13 14 16 18
Wind_Direction
149 153 171 215 238 239 250 174 333 281 220 94 125 226 296 325 303 332 81 164 161 159 207 225 228 235 247 254 260 274 278 273 258 253 256 262 273 281 282 278 272 265 260 257 255 250 250 248 259
160 167 221 268 254 240 195 38 301 356 85 169 182 199 238 291 220 208 217 180 192 217 213 232 247 248 251 254 263 269 275 276 267 262 265 268 270 268 272 274 268 261 256 254 253 246 241 247 248
169 228 268 250 256 264 328 12 318 348 183 212 216 275 347 125 158 143 134 168 207 237 245 253 247 254 257 261 262 270 271 270 268 263 268 269 266 263 260 264 264 257 254 253 253 246 237 241 240
186 205 225 253 256 28 297 323 317 282 204 225 255 246 156 145 152 169 169 193 232 257 266 264 253 246 245 256 265 268 272 273 273 272 271 272 270 267 256 254 254 250 250 253 256 250 242 228 233
226 255 263 251 263 287 286 298 295 265 250 216 222 267 274 191 175 177 184 212 254 268 268 271 268 261 258 264 267 274 278 282 282 277 274 275 274 270 263 246 246 242 243 246 256 259 254 230 223
241 272 253 255 259 285 310 316 276 255 263 137 235 265 279 145 190 190 198 221 262 256 257 271 278 270 266 265 266 272 274 275 278 278 280 281 278 268 260 247 238 237 242 245 249 255 254 241 224
253 259 268 290 279 285 357 335 259 279 264 233 255 261 37 199 190 187 187 196 210 219 268 276 279 278 287 284 279 278 281 283 280 283 286 280 278 269 255 246 233 233 236 235 239 247 254 242 224
261 273 268 260 275 297 360 281 291 261 274 81 192 254 252 186 182 185 199 208 225 268 290 290 288 289 289 286 292 286 289 288 288 289 282 274 271 267 252 241 232 225 233 228 235 243 251 236 223
247 259 259 267 278 291 284 280 165 302 244 221 197 262 40 166 173 190 207 230 271 290 293 295 296 292 288 290 292 303 303 304 298 287 282 283 272 260 245 237 222 223 230 230 232 236 250 234 225
227 250 262 282 292 285 293 279 295 226 216 230 225 206 197 179 186 206 219 245 272 297 304 302 296 295 290 292 291 297 298 298 289 281 273 275 269 260 247 242 230 232 227 226 226 231 240 226 216
225 253 276 272 271 291 288 285 260 255 263 249 246 211 202 197 201 219 232 275 302 309 302 311 304 300 293 295 296 296 300 294 287 279 282 275 265 258 247 238 234 227 221 223 225 229 227 216 203
241 250 260 269 291 290 277 271 249 242 272 354 237 224 194 201 203 211 219 237 292 313 315 317 313 303 294 302 298 297 293 299 292 294 290 274 270 271 264 240 228 216 216 218 222 213 218 210 195
231 263 258 269 274 260 267 245 275 269 284 231 232 196 202 204 202 199 201 221 300 316 329 326 314 305 298 298 293 294 296 300 299 285 274 266 270 284 269 234 225 217 203 206 206 210 204 195 186
244 258 272 265 251 212 237 230 247 291 261 225 217 211 206 203 197 192 196 207 281 321 329 324 321 309 298 299 296 297 294 300 304 289 269 267 271 278 259 209 201 194 186 189 196 197 189 178 181
252 255 241 235 218 225 242 248 255 283 204 238 228 219 208 201 196 203 193 192 274 314 322 334 322 307 306 313 304 301 296 290 288 286 272 260 261 259 232 178 180 172 172 176 179 177 173 174 176
230 237 251 197 202 167 222 270 271 288 219 234 225 219 207 201 198 194 191 194 234 299 319 338 317 313 315 307 304 300 294 290 277 268 258 249 250 258 240 202 185 175 172 173 172 172 173 176 177
227 250 232 235 199 198 216 276 281 297 256 261 236 222 211 199 198 191 193 196 201 256 319 329 322 324 328 309 311 311 304 293 290 291 284 266 245 243 243 225 184 176 172 172 171 172 173 165 179
232 224 243 257 188 225 253 257 271 278 251 258 253 230 217 208 199 191 192 189 186 224 280 310 316 326 337 327 324 333 330 325 338 325 297 314 282 250 232 215 182 172 170 170 167 171 175 172 176
265 257 257 253 269 264 275 285 287 282 275 256 254 226 218 209 194 185 186 187 187 217 255 290 319 334 348 345 347 355 359 11 6 342 318 306 257 230 208 189 178 180 177 173 168 167 167 164 172
232 243 249 254 267 278 289 284 292 289 271 262 244 223 214 201 189 183 183 187 187 196 233 278 317 339 348 347 348 349 1 17 359 349 10 350 172 197 180 177 171 175 171 172 172 171 160 160 163
229 242 249 259 292 274 266 273 287 288 245 246 242 229 208 200 190 183 183 185 178 184 197 242 343 343 1 5 18 22 29 52 87 42 54 40 68 200 196 175 167 169 178 181 183 174 169 155 154
233 221 259 259 270 283 345 293 293 271 264 231 225 218 208 196 189 181 180 181 178 171 177 155 16 13 33 31 32 18 33 30 16 19 69 73 82 130 140 167 174 178 188 183 179 173 171 155 141
242 236 234 258 271 285 267 256 291 260 277 262 242 208 202 190 186 180 177 177 175 164 174 163 51 47 50 50 36 16 18 32 356 45 66 55 70 106 121 142 150 162 166 168 169 164 159 150 137
226 204 227 248 259 254 260 260 280 278 300 282 253 74 182 180 183 176 175 172 172 166 168 167 104 75 71 53 38 28 34 33 27 15 87 50 60 89 89 124 147 137 144 154 156 150 144 142 135
222 214 229 223 221 252 141 256 259 305 292 290 290 303 172 173 176 173 174 178 176 170 171 173 145 99 77 58 47 39 47 44 22 29 60 85 79 67 63 107 130 126 126 137 140 145 139 139 138
202 210 235 232 246 254 158 259 233 327 311 289 296 299 156 171 173 174 175 179 179 174 173 177 143 125 98 77 58 52 43 47 31 62 98 102 88 73 61 96 112 107 119 130 138 137 137 132 131
185 219 228 255 268 272 275 213 254 255 242 217 199 147 159 168 171 174 174 180 179 176 175 180 157 130 112 90 74 69 57 43 52 77 80 77 84 72 59 91 113 102 109 127 134 124 125 127 138
225 201 203 224 243 241 244 240 262 276 33 116 170 155 162 167 170 173 174 178 179 175 173 181 174 146 131 109 89 79 76 54 57 77 77 71 70 65 56 92 112 109 102 106 118 122 125 127 139
189 223 214 252 226 233 248 259 84 287 47 56 156 160 165 172 174 172 174 178 178 174 173 179 172 159 143 129 110 92 91 71 73 68 64 73 85 107 86 87 118 107 101 105 105 113 120 124 140
201 213 206 221 212 245 276 263 116 261 121 271 158 166 170 170 175 176 172 176 177 177 176 179 172 166 150 140 131 107 104 95 82 80 79 84 96 107 119 110 121 137 131 134 125 130 130 128 143